owner,sensor,date,latitude,longitude,vertical_datum,sea_water_practical_salinity,qcFlag 
SCCF RECON,ioos:station:SCCF:16:1,2011-11-01T00:00:00Z,26.4345,-81.9647,2.634,32.49,1111122 
SCCF RECON,ioos:station:SCCF:16:1,2011-11-01T01:00:00Z,26.4345,-81.9647,2.555,32.57,1111122 
SCCF RECON,ioos:station:SCCF:16:1,2011-11-01T02:00:00Z,26.4345,-81.9647,2.481,32.56,1111122 
SCCF RECON,ioos:station:SCCF:16:1,2011-11-01T03:00:00Z,26.4345,-81.9647,2.474,32.42,1111122 
SCCF RECON,ioos:station:SCCF:16:1,2011-11-01T04:00:00Z,26.4345,-81.9647,2.495,32.36,1111122 
SCCF RECON,ioos:station:SCCF:16:1,2011-11-01T05:00:00Z,26.4345,-81.9647,2.549,32.37,1111122 
SCCF RECON,ioos:station:SCCF:16:1,2011-11-01T06:00:00Z,26.4345,-81.9647,2.62,32.3,1111122 
SCCF RECON,ioos:station:SCCF:16:1,2011-11-01T07:00:00Z,26.4345,-81.9647,2.721,31.8,1111122 
SCCF RECON,ioos:station:SCCF:16:1,2011-11-01T08:00:00Z,26.4345,-81.9647,2.718,31.57,1111122 
SCCF RECON,ioos:station:SCCF:16:1,2011-11-01T09:00:00Z,26.4345,-81.9647,2.664,32.09,1111122 
SCCF RECON,ioos:station:SCCF:16:1,2011-11-01T10:00:00Z,26.4345,-81.9647,2.557,32.52,1111122 
SCCF RECON,ioos:station:SCCF:16:1,2011-11-01T11:00:00Z,26.4345,-81.9647,2.465,32.49,1111122 
SCCF RECON,ioos:station:SCCF:16:1,2011-11-01T12:00:00Z,26.4345,-81.9647,2.321,31.38,1111122 
SCCF RECON,ioos:station:SCCF:16:1,2011-11-01T13:00:00Z,26.4345,-81.9647,2.18,29.28,1111122 
SCCF RECON,ioos:station:SCCF:16:1,2011-11-01T14:00:00Z,26.4345,-81.9647,2.042,27.13,1111122 
SCCF RECON,ioos:station:SCCF:16:1,2011-11-01T15:00:00Z,26.4345,-81.9647,1.996,25.28,1111122 
SCCF RECON,ioos:station:SCCF:16:1,2011-11-01T16:00:00Z,26.4345,-81.9647,1.999,23.64,1111122 
SCCF RECON,ioos:station:SCCF:16:1,2011-11-01T17:00:00Z,26.4345,-81.9647,2.059,26.02,1111122 
SCCF RECON,ioos:station:SCCF:16:1,2011-11-01T18:00:00Z,26.4345,-81.9647,2.123,27.98,1111122 
SCCF RECON,ioos:station:SCCF:16:1,2011-11-01T19:00:00Z,26.4345,-81.9647,2.305,30.38,1111122 
SCCF RECON,ioos:station:SCCF:16:1,2011-11-01T20:00:00Z,26.4345,-81.9647,2.462,33.02,1111122 
SCCF RECON,ioos:station:SCCF:16:1,2011-11-01T21:00:00Z,26.4345,-81.9647,2.55,33.06,1111122 
SCCF RECON,ioos:station:SCCF:16:1,2011-11-01T22:00:00Z,26.4345,-81.9647,2.632,33.0,1111122 
SCCF RECON,ioos:station:SCCF:16:1,2011-11-01T23:00:00Z,26.4345,-81.9647,2.668,32.96,1111122 
SCCF RECON,ioos:station:SCCF:16:1,2011-11-02T00:00:00Z,26.4345,-81.9647,2.63,32.48,1111122 
SCCF RECON,ioos:station:SCCF:16:1,2011-11-02T01:00:00Z,26.4345,-81.9647,2.546,32.75,1111122 
SCCF RECON,ioos:station:SCCF:16:1,2011-11-02T02:00:00Z,26.4345,-81.9647,2.487,32.83,1111122 
SCCF RECON,ioos:station:SCCF:16:1,2011-11-02T03:00:00Z,26.4345,-81.9647,2.433,32.91,1111122 
SCCF RECON,ioos:station:SCCF:16:1,2011-11-02T04:00:00Z,26.4345,-81.9647,2.402,32.97,1111122 
SCCF RECON,ioos:station:SCCF:16:1,2011-11-02T05:00:00Z,26.4345,-81.9647,2.379,32.98,1111122 
SCCF RECON,ioos:station:SCCF:16:1,2011-11-02T06:00:00Z,26.4345,-81.9647,2.385,32.93,1111122 
SCCF RECON,ioos:station:SCCF:16:1,2011-11-02T07:00:00Z,26.4345,-81.9647,2.455,32.59,1111122 
SCCF RECON,ioos:station:SCCF:16:1,2011-11-02T08:00:00Z,26.4345,-81.9647,2.552,32.41,1111122 
SCCF RECON,ioos:station:SCCF:16:1,2011-11-02T09:00:00Z,26.4345,-81.9647,2.64,32.49,1111122 
SCCF RECON,ioos:station:SCCF:16:1,2011-11-02T10:00:00Z,26.4345,-81.9647,2.646,32.89,1111122 
SCCF RECON,ioos:station:SCCF:16:1,2011-11-02T11:00:00Z,26.4345,-81.9647,2.613,32.86,1111122 
SCCF RECON,ioos:station:SCCF:16:1,2011-11-02T12:00:00Z,26.4345,-81.9647,2.523,32.87,1111122 
SCCF RECON,ioos:station:SCCF:16:1,2011-11-02T13:00:00Z,26.4345,-81.9647,2.439,32.94,1111122 
SCCF RECON,ioos:station:SCCF:16:1,2011-11-02T14:00:00Z,26.4345,-81.9647,2.33,33.03,1111122 
SCCF RECON,ioos:station:SCCF:16:1,2011-11-02T15:00:00Z,26.4345,-81.9647,2.239,31.92,1111122 
SCCF RECON,ioos:station:SCCF:16:1,2011-11-02T16:00:00Z,26.4345,-81.9647,2.165,28.18,1111122 
SCCF RECON,ioos:station:SCCF:16:1,2011-11-02T17:00:00Z,26.4345,-81.9647,2.127,27.9,1111122 
SCCF RECON,ioos:station:SCCF:16:1,2011-11-02T18:00:00Z,26.4345,-81.9647,2.173,31.2,1111122 
SCCF RECON,ioos:station:SCCF:16:1,2011-11-02T19:00:00Z,26.4345,-81.9647,2.288,31.75,1111122 
SCCF RECON,ioos:station:SCCF:16:1,2011-11-02T20:00:00Z,26.4345,-81.9647,2.389,32.42,1111122 
SCCF RECON,ioos:station:SCCF:16:1,2011-11-02T21:00:00Z,26.4345,-81.9647,2.493,32.57,1111122 
SCCF RECON,ioos:station:SCCF:16:1,2011-11-02T22:00:00Z,26.4345,-81.9647,2.577,32.74,1111122 
SCCF RECON,ioos:station:SCCF:16:1,2011-11-02T23:00:00Z,26.4345,-81.9647,2.625,32.47,1111122 
SCCF RECON,ioos:station:SCCF:16:1,2011-11-03T00:00:00Z,26.4345,-81.9647,2.645,32.18,1111122 
SCCF RECON,ioos:station:SCCF:16:1,2011-11-03T01:00:00Z,26.4345,-81.9647,2.637,32.38,1111122 
SCCF RECON,ioos:station:SCCF:16:1,2011-11-03T02:00:00Z,26.4345,-81.9647,2.597,32.55,1111122 
SCCF RECON,ioos:station:SCCF:16:1,2011-11-03T03:00:00Z,26.4345,-81.9647,2.565,32.58,1111122 
SCCF RECON,ioos:station:SCCF:16:1,2011-11-03T04:00:00Z,26.4345,-81.9647,2.524,32.64,1111122 
SCCF RECON,ioos:station:SCCF:16:1,2011-11-03T05:00:00Z,26.4345,-81.9647,2.457,32.76,1111122 
SCCF RECON,ioos:station:SCCF:16:1,2011-11-03T06:00:00Z,26.4345,-81.9647,2.42,32.76,1111122 
SCCF RECON,ioos:station:SCCF:16:1,2011-11-03T07:00:00Z,26.4345,-81.9647,2.449,32.78,1111122 
SCCF RECON,ioos:station:SCCF:16:1,2011-11-03T08:00:00Z,26.4345,-81.9647,2.555,32.72,1111122 
SCCF RECON,ioos:station:SCCF:16:1,2011-11-03T09:00:00Z,26.4345,-81.9647,2.705,32.76,1111122 
SCCF RECON,ioos:station:SCCF:16:1,2011-11-03T10:00:00Z,26.4345,-81.9647,2.77,32.56,1111122 
SCCF RECON,ioos:station:SCCF:16:1,2011-11-03T11:00:00Z,26.4345,-81.9647,2.788,32.43,1111122 
SCCF RECON,ioos:station:SCCF:16:1,2011-11-03T12:00:00Z,26.4345,-81.9647,2.766,32.36,1111122 
SCCF RECON,ioos:station:SCCF:16:1,2011-11-03T13:00:00Z,26.4345,-81.9647,2.709,32.68,1111122 
SCCF RECON,ioos:station:SCCF:16:1,2011-11-03T14:00:00Z,26.4345,-81.9647,2.615,32.58,1111122 
SCCF RECON,ioos:station:SCCF:16:1,2011-11-03T15:00:00Z,26.4345,-81.9647,2.54,32.57,1111122 
SCCF RECON,ioos:station:SCCF:16:1,2011-11-03T16:00:00Z,26.4345,-81.9647,2.457,32.74,1111122 
SCCF RECON,ioos:station:SCCF:16:1,2011-11-03T17:00:00Z,26.4345,-81.9647,2.347,32.73,1111122 
SCCF RECON,ioos:station:SCCF:16:1,2011-11-03T18:00:00Z,26.4345,-81.9647,2.283,32.03,1111122 
SCCF RECON,ioos:station:SCCF:16:1,2011-11-03T19:00:00Z,26.4345,-81.9647,2.296,31.67,1111122 
SCCF RECON,ioos:station:SCCF:16:1,2011-11-03T20:00:00Z,26.4345,-81.9647,2.357,31.48,1111122 
SCCF RECON,ioos:station:SCCF:16:1,2011-11-03T21:00:00Z,26.4345,-81.9647,2.485,32.39,1111122 
SCCF RECON,ioos:station:SCCF:16:1,2011-11-03T22:00:00Z,26.4345,-81.9647,2.57,32.17,1111122 
SCCF RECON,ioos:station:SCCF:16:1,2011-11-03T23:00:00Z,26.4345,-81.9647,2.622,32.91,1111122 
SCCF RECON,ioos:station:SCCF:16:1,2011-11-04T00:00:00Z,26.4345,-81.9647,2.696,32.97,1111122 
SCCF RECON,ioos:station:SCCF:16:1,2011-11-04T01:00:00Z,26.4345,-81.9647,2.739,32.87,1111122 
SCCF RECON,ioos:station:SCCF:16:1,2011-11-04T02:00:00Z,26.4345,-81.9647,2.764,33.04,1111122 
SCCF RECON,ioos:station:SCCF:16:1,2011-11-04T03:00:00Z,26.4345,-81.9647,2.74,33.22,1111122 
SCCF RECON,ioos:station:SCCF:16:1,2011-11-04T04:00:00Z,26.4345,-81.9647,2.635,33.26,1111122 
SCCF RECON,ioos:station:SCCF:16:1,2011-11-04T05:00:00Z,26.4345,-81.9647,2.532,33.15,1111122 
SCCF RECON,ioos:station:SCCF:16:1,2011-11-04T06:00:00Z,26.4345,-81.9647,2.453,33.08,1111122 
SCCF RECON,ioos:station:SCCF:16:1,2011-11-04T07:00:00Z,26.4345,-81.9647,2.425,32.94,1111122 
SCCF RECON,ioos:station:SCCF:16:1,2011-11-04T08:00:00Z,26.4345,-81.9647,2.455,32.74,1111122 
SCCF RECON,ioos:station:SCCF:16:1,2011-11-04T09:00:00Z,26.4345,-81.9647,2.53,32.9,1111122 
SCCF RECON,ioos:station:SCCF:16:1,2011-11-04T10:00:00Z,26.4345,-81.9647,2.619,33.05,1111122 
SCCF RECON,ioos:station:SCCF:16:1,2011-11-04T11:00:00Z,26.4345,-81.9647,2.705,33.25,1111122 
SCCF RECON,ioos:station:SCCF:16:1,2011-11-04T12:00:00Z,26.4345,-81.9647,2.76,33.61,1111122 
SCCF RECON,ioos:station:SCCF:16:1,2011-11-04T13:00:00Z,26.4345,-81.9647,2.803,33.75,1111122 
SCCF RECON,ioos:station:SCCF:16:1,2011-11-04T14:00:00Z,26.4345,-81.9647,2.828,33.78,1111122 
SCCF RECON,ioos:station:SCCF:16:1,2011-11-04T15:00:00Z,26.4345,-81.9647,2.755,33.78,1111122 
SCCF RECON,ioos:station:SCCF:16:1,2011-11-04T16:00:00Z,26.4345,-81.9647,2.62,33.78,1111122 
SCCF RECON,ioos:station:SCCF:16:1,2011-11-04T17:00:00Z,26.4345,-81.9647,2.466,32.91,1111122 
SCCF RECON,ioos:station:SCCF:16:1,2011-11-04T18:00:00Z,26.4345,-81.9647,2.381,32.81,1111122 
SCCF RECON,ioos:station:SCCF:16:1,2011-11-04T19:00:00Z,26.4345,-81.9647,2.356,32.49,1111122 
SCCF RECON,ioos:station:SCCF:16:1,2011-11-04T20:00:00Z,26.4345,-81.9647,2.32,30.72,1111122 
SCCF RECON,ioos:station:SCCF:16:1,2011-11-04T21:00:00Z,26.4345,-81.9647,2.37,28.65,1111122 
SCCF RECON,ioos:station:SCCF:16:1,2011-11-04T22:00:00Z,26.4345,-81.9647,2.447,28.29,1111122 
SCCF RECON,ioos:station:SCCF:16:1,2011-11-04T23:00:00Z,26.4345,-81.9647,2.534,27.85,1111122 
SCCF RECON,ioos:station:SCCF:16:1,2011-11-05T00:00:00Z,26.4345,-81.9647,2.617,27.96,1111122 
SCCF RECON,ioos:station:SCCF:16:1,2011-11-05T01:00:00Z,26.4345,-81.9647,2.698,28.26,1111122 
SCCF RECON,ioos:station:SCCF:16:1,2011-11-05T02:00:00Z,26.4345,-81.9647,2.7,28.66,1111122 
SCCF RECON,ioos:station:SCCF:16:1,2011-11-05T03:00:00Z,26.4345,-81.9647,2.673,31.11,1111122 
SCCF RECON,ioos:station:SCCF:16:1,2011-11-05T04:00:00Z,26.4345,-81.9647,2.538,30.42,1111122 
SCCF RECON,ioos:station:SCCF:16:1,2011-11-05T05:00:00Z,26.4345,-81.9647,2.375,29.32,1111122 
SCCF RECON,ioos:station:SCCF:16:1,2011-11-05T06:00:00Z,26.4345,-81.9647,2.249,25.2,1111122 
SCCF RECON,ioos:station:SCCF:16:1,2011-11-05T07:00:00Z,26.4345,-81.9647,2.18,24.99,1111122 
SCCF RECON,ioos:station:SCCF:16:1,2011-11-05T08:00:00Z,26.4345,-81.9647,2.179,24.67,1111122 
SCCF RECON,ioos:station:SCCF:16:1,2011-11-05T09:00:00Z,26.4345,-81.9647,2.202,24.88,1111122 
SCCF RECON,ioos:station:SCCF:16:1,2011-11-05T10:00:00Z,26.4345,-81.9647,2.326,28.64,1111122 
SCCF RECON,ioos:station:SCCF:16:1,2011-11-05T11:00:00Z,26.4345,-81.9647,2.455,26.31,1111122 
SCCF RECON,ioos:station:SCCF:16:1,2011-11-05T12:00:00Z,26.4345,-81.9647,2.512,33.16,1111122 
SCCF RECON,ioos:station:SCCF:16:1,2011-11-05T13:00:00Z,26.4345,-81.9647,2.54,33.22,1111122 
SCCF RECON,ioos:station:SCCF:16:1,2011-11-05T14:00:00Z,26.4345,-81.9647,2.584,33.27,1111122 
SCCF RECON,ioos:station:SCCF:16:1,2011-11-05T15:00:00Z,26.4345,-81.9647,2.591,33.11,1111122 
SCCF RECON,ioos:station:SCCF:16:1,2011-11-05T16:00:00Z,26.4345,-81.9647,2.538,33.12,1111122 
SCCF RECON,ioos:station:SCCF:16:1,2011-11-05T17:00:00Z,26.4345,-81.9647,2.473,33.51,1111122 
SCCF RECON,ioos:station:SCCF:16:1,2011-11-05T18:00:00Z,26.4345,-81.9647,2.431,33.11,1111122 
SCCF RECON,ioos:station:SCCF:16:1,2011-11-05T19:00:00Z,26.4345,-81.9647,2.392,33.16,1111122 
SCCF RECON,ioos:station:SCCF:16:1,2011-11-05T20:00:00Z,26.4345,-81.9647,2.369,33.01,1111122 
SCCF RECON,ioos:station:SCCF:16:1,2011-11-05T21:00:00Z,26.4345,-81.9647,2.407,32.93,1111122 
SCCF RECON,ioos:station:SCCF:16:1,2011-11-05T22:00:00Z,26.4345,-81.9647,2.49,32.95,1111122 
SCCF RECON,ioos:station:SCCF:16:1,2011-11-05T23:00:00Z,26.4345,-81.9647,2.556,33.02,1111122 
SCCF RECON,ioos:station:SCCF:16:1,2011-11-06T00:00:00Z,26.4345,-81.9647,2.634,33.26,1111122 
SCCF RECON,ioos:station:SCCF:16:1,2011-11-06T01:00:00Z,26.4345,-81.9647,2.669,33.43,1111122 
SCCF RECON,ioos:station:SCCF:16:1,2011-11-06T02:00:00Z,26.4345,-81.9647,2.689,33.51,1111122 
SCCF RECON,ioos:station:SCCF:16:1,2011-11-06T03:00:00Z,26.4345,-81.9647,2.721,33.6,1111122 
SCCF RECON,ioos:station:SCCF:16:1,2011-11-06T04:00:00Z,26.4345,-81.9647,2.689,33.62,1111122 
SCCF RECON,ioos:station:SCCF:16:1,2011-11-06T05:00:00Z,26.4345,-81.9647,2.598,33.66,1111122 
SCCF RECON,ioos:station:SCCF:16:1,2011-11-06T06:00:00Z,26.4345,-81.9647,2.422,33.59,1111122 
SCCF RECON,ioos:station:SCCF:16:1,2011-11-06T07:00:00Z,26.4345,-81.9647,2.284,33.5,1111122 
SCCF RECON,ioos:station:SCCF:16:1,2011-11-06T08:00:00Z,26.4345,-81.9647,2.207,29.77,1111122 
SCCF RECON,ioos:station:SCCF:16:1,2011-11-06T09:00:00Z,26.4345,-81.9647,2.207,28.15,1111122 
SCCF RECON,ioos:station:SCCF:16:1,2011-11-06T10:00:00Z,26.4345,-81.9647,2.333,32.42,1111122 
SCCF RECON,ioos:station:SCCF:16:1,2011-11-06T11:00:00Z,26.4345,-81.9647,2.492,31.04,1111122 
SCCF RECON,ioos:station:SCCF:16:1,2011-11-06T12:00:00Z,26.4345,-81.9647,2.592,33.16,1111122 
SCCF RECON,ioos:station:SCCF:16:1,2011-11-06T13:00:00Z,26.4345,-81.9647,2.639,33.25,1111122 
SCCF RECON,ioos:station:SCCF:16:1,2011-11-06T14:00:00Z,26.4345,-81.9647,2.709,33.46,1111122 
SCCF RECON,ioos:station:SCCF:16:1,2011-11-06T15:00:00Z,26.4345,-81.9647,2.753,33.59,1111122 
SCCF RECON,ioos:station:SCCF:16:1,2011-11-06T16:00:00Z,26.4345,-81.9647,2.721,33.72,1111122 
SCCF RECON,ioos:station:SCCF:16:1,2011-11-06T17:00:00Z,26.4345,-81.9647,2.627,33.4,1111122 
SCCF RECON,ioos:station:SCCF:16:1,2011-11-06T18:00:00Z,26.4345,-81.9647,2.532,33.63,1111122 
SCCF RECON,ioos:station:SCCF:16:1,2011-11-06T19:00:00Z,26.4345,-81.9647,2.47,33.61,1111122 
SCCF RECON,ioos:station:SCCF:16:1,2011-11-06T20:00:00Z,26.4345,-81.9647,2.413,33.49,1111122 
SCCF RECON,ioos:station:SCCF:16:1,2011-11-06T21:00:00Z,26.4345,-81.9647,2.422,33.25,1111122 
SCCF RECON,ioos:station:SCCF:16:1,2011-11-06T22:00:00Z,26.4345,-81.9647,2.486,33.28,1111122 
SCCF RECON,ioos:station:SCCF:16:1,2011-11-06T23:00:00Z,26.4345,-81.9647,2.606,33.44,1111122 
SCCF RECON,ioos:station:SCCF:16:1,2011-11-07T00:00:00Z,26.4345,-81.9647,2.676,33.63,1111122 
SCCF RECON,ioos:station:SCCF:16:1,2011-11-07T01:00:00Z,26.4345,-81.9647,2.723,33.82,1111122 
SCCF RECON,ioos:station:SCCF:16:1,2011-11-07T02:00:00Z,26.4345,-81.9647,2.737,34.0,1111122 
SCCF RECON,ioos:station:SCCF:16:1,2011-11-07T03:00:00Z,26.4345,-81.9647,2.763,34.0,1111122 
SCCF RECON,ioos:station:SCCF:16:1,2011-11-07T04:00:00Z,26.4345,-81.9647,2.713,33.96,1111122 
SCCF RECON,ioos:station:SCCF:16:1,2011-11-07T05:00:00Z,26.4345,-81.9647,2.619,33.96,1111122 
SCCF RECON,ioos:station:SCCF:16:1,2011-11-07T06:00:00Z,26.4345,-81.9647,2.49,34.02,1111122 
SCCF RECON,ioos:station:SCCF:16:1,2011-11-07T07:00:00Z,26.4345,-81.9647,2.281,33.96,1111122 
SCCF RECON,ioos:station:SCCF:16:1,2011-11-07T08:00:00Z,26.4345,-81.9647,2.18,32.98,1111122 
SCCF RECON,ioos:station:SCCF:16:1,2011-11-07T09:00:00Z,26.4345,-81.9647,2.094,31.01,1111122 
SCCF RECON,ioos:station:SCCF:16:1,2011-11-07T10:00:00Z,26.4345,-81.9647,2.155,29.28,1111122 
SCCF RECON,ioos:station:SCCF:16:1,2011-11-07T11:00:00Z,26.4345,-81.9647,2.321,29.99,1111122 
SCCF RECON,ioos:station:SCCF:16:1,2011-11-07T12:00:00Z,26.4345,-81.9647,2.487,30.99,1111122 
SCCF RECON,ioos:station:SCCF:16:1,2011-11-07T13:00:00Z,26.4345,-81.9647,2.619,33.37,1111122 
SCCF RECON,ioos:station:SCCF:16:1,2011-11-07T14:00:00Z,26.4345,-81.9647,2.707,33.57,1111122 
SCCF RECON,ioos:station:SCCF:16:1,2011-11-07T15:00:00Z,26.4345,-81.9647,2.788,33.83,1111122 
SCCF RECON,ioos:station:SCCF:16:1,2011-11-07T16:00:00Z,26.4345,-81.9647,2.789,34.08,1111122 
SCCF RECON,ioos:station:SCCF:16:1,2011-11-07T17:00:00Z,26.4345,-81.9647,2.737,33.84,1111122 
SCCF RECON,ioos:station:SCCF:16:1,2011-11-07T18:00:00Z,26.4345,-81.9647,2.636,33.91,1111122 
SCCF RECON,ioos:station:SCCF:16:1,2011-11-07T19:00:00Z,26.4345,-81.9647,2.562,33.95,1111122 
SCCF RECON,ioos:station:SCCF:16:1,2011-11-07T20:00:00Z,26.4345,-81.9647,2.527,33.92,1111122 
SCCF RECON,ioos:station:SCCF:16:1,2011-11-07T21:00:00Z,26.4345,-81.9647,2.538,33.9,1111122 
SCCF RECON,ioos:station:SCCF:16:1,2011-11-07T22:00:00Z,26.4345,-81.9647,2.587,33.93,1111122 
SCCF RECON,ioos:station:SCCF:16:1,2011-11-07T23:00:00Z,26.4345,-81.9647,2.667,33.99,1111122 
SCCF RECON,ioos:station:SCCF:16:1,2011-11-08T00:00:00Z,26.4345,-81.9647,2.783,34.13,1111122 
SCCF RECON,ioos:station:SCCF:16:1,2011-11-08T01:00:00Z,26.4345,-81.9647,2.845,34.2,1111122 
SCCF RECON,ioos:station:SCCF:16:1,2011-11-08T02:00:00Z,26.4345,-81.9647,2.892,33.87,1111122 
SCCF RECON,ioos:station:SCCF:16:1,2011-11-08T03:00:00Z,26.4345,-81.9647,2.906,33.75,1111122 
SCCF RECON,ioos:station:SCCF:16:1,2011-11-08T04:00:00Z,26.4345,-81.9647,2.889,33.79,1111122 
SCCF RECON,ioos:station:SCCF:16:1,2011-11-08T05:00:00Z,26.4345,-81.9647,2.787,33.82,1111122 
SCCF RECON,ioos:station:SCCF:16:1,2011-11-08T06:00:00Z,26.4345,-81.9647,2.622,33.85,1111122 
SCCF RECON,ioos:station:SCCF:16:1,2011-11-08T07:00:00Z,26.4345,-81.9647,2.423,34.11,1111122 
SCCF RECON,ioos:station:SCCF:16:1,2011-11-08T08:00:00Z,26.4345,-81.9647,2.291,33.79,1111122 
SCCF RECON,ioos:station:SCCF:16:1,2011-11-08T09:00:00Z,26.4345,-81.9647,2.163,33.43,1111122 
SCCF RECON,ioos:station:SCCF:16:1,2011-11-08T10:00:00Z,26.4345,-81.9647,2.157,32.45,1111122 
SCCF RECON,ioos:station:SCCF:16:1,2011-11-08T11:00:00Z,26.4345,-81.9647,2.272,31.37,1111122 
SCCF RECON,ioos:station:SCCF:16:1,2011-11-08T12:00:00Z,26.4345,-81.9647,2.44,31.8,1111122 
SCCF RECON,ioos:station:SCCF:16:1,2011-11-08T13:00:00Z,26.4345,-81.9647,2.634,32.26,1111122 
SCCF RECON,ioos:station:SCCF:16:1,2011-11-08T14:00:00Z,26.4345,-81.9647,2.72,33.46,1111122 
SCCF RECON,ioos:station:SCCF:16:1,2011-11-08T15:00:00Z,26.4345,-81.9647,2.836,33.86,1111122 
SCCF RECON,ioos:station:SCCF:16:1,2011-11-08T16:00:00Z,26.4345,-81.9647,2.899,33.99,1111122 
SCCF RECON,ioos:station:SCCF:16:1,2011-11-08T17:00:00Z,26.4345,-81.9647,2.866,34.03,1111122 
SCCF RECON,ioos:station:SCCF:16:1,2011-11-08T18:00:00Z,26.4345,-81.9647,2.795,34.07,1111122 
SCCF RECON,ioos:station:SCCF:16:1,2011-11-08T19:00:00Z,26.4345,-81.9647,2.732,34.08,1111122 
SCCF RECON,ioos:station:SCCF:16:1,2011-11-08T20:00:00Z,26.4345,-81.9647,2.647,34.02,1111122 
SCCF RECON,ioos:station:SCCF:16:1,2011-11-08T21:00:00Z,26.4345,-81.9647,2.587,33.64,1111122 
SCCF RECON,ioos:station:SCCF:16:1,2011-11-08T22:00:00Z,26.4345,-81.9647,2.593,33.72,1111122 
SCCF RECON,ioos:station:SCCF:16:1,2011-11-08T23:00:00Z,26.4345,-81.9647,2.613,33.83,1111122 
SCCF RECON,ioos:station:SCCF:16:1,2011-11-09T00:00:00Z,26.4345,-81.9647,2.724,33.67,1111122 
SCCF RECON,ioos:station:SCCF:16:1,2011-11-09T01:00:00Z,26.4345,-81.9647,2.852,33.72,1111122 
SCCF RECON,ioos:station:SCCF:16:1,2011-11-09T02:00:00Z,26.4345,-81.9647,2.934,33.79,1111122 
SCCF RECON,ioos:station:SCCF:16:1,2011-11-09T03:00:00Z,26.4345,-81.9647,2.979,33.77,1111122 
SCCF RECON,ioos:station:SCCF:16:1,2011-11-09T04:00:00Z,26.4345,-81.9647,3.001,34.06,1111122 
SCCF RECON,ioos:station:SCCF:16:1,2011-11-09T05:00:00Z,26.4345,-81.9647,2.922,33.98,1111122 
SCCF RECON,ioos:station:SCCF:16:1,2011-11-09T06:00:00Z,26.4345,-81.9647,2.724,34.01,1111122 
SCCF RECON,ioos:station:SCCF:16:1,2011-11-09T07:00:00Z,26.4345,-81.9647,2.518,33.99,1111122 
SCCF RECON,ioos:station:SCCF:16:1,2011-11-09T08:00:00Z,26.4345,-81.9647,2.364,33.95,1111122 
SCCF RECON,ioos:station:SCCF:16:1,2011-11-09T09:00:00Z,26.4345,-81.9647,2.24,33.74,1111122 
SCCF RECON,ioos:station:SCCF:16:1,2011-11-09T10:00:00Z,26.4345,-81.9647,2.137,32.6,1111122 
SCCF RECON,ioos:station:SCCF:16:1,2011-11-09T11:00:00Z,26.4345,-81.9647,2.173,30.53,1111122 
SCCF RECON,ioos:station:SCCF:16:1,2011-11-09T12:00:00Z,26.4345,-81.9647,2.397,29.84,1111122 
SCCF RECON,ioos:station:SCCF:16:1,2011-11-09T13:00:00Z,26.4345,-81.9647,2.574,31.7,1111122 
SCCF RECON,ioos:station:SCCF:16:1,2011-11-09T14:00:00Z,26.4345,-81.9647,2.735,31.86,1111122 
SCCF RECON,ioos:station:SCCF:16:1,2011-11-09T15:00:00Z,26.4345,-81.9647,2.818,33.1,1111122 
SCCF RECON,ioos:station:SCCF:16:1,2011-11-09T16:00:00Z,26.4345,-81.9647,2.899,33.39,1111122 
SCCF RECON,ioos:station:SCCF:16:1,2011-11-09T17:00:00Z,26.4345,-81.9647,2.92,33.8,1111122 
SCCF RECON,ioos:station:SCCF:16:1,2011-11-09T18:00:00Z,26.4345,-81.9647,2.864,34.03,1111122 
SCCF RECON,ioos:station:SCCF:16:1,2011-11-09T19:00:00Z,26.4345,-81.9647,2.765,34.09,1111122 
SCCF RECON,ioos:station:SCCF:16:1,2011-11-09T20:00:00Z,26.4345,-81.9647,2.68,34.06,1111122 
SCCF RECON,ioos:station:SCCF:16:1,2011-11-09T21:00:00Z,26.4345,-81.9647,2.667,33.96,1111122 
SCCF RECON,ioos:station:SCCF:16:1,2011-11-09T22:00:00Z,26.4345,-81.9647,2.604,33.52,1111122 
SCCF RECON,ioos:station:SCCF:16:1,2011-11-09T23:00:00Z,26.4345,-81.9647,2.594,33.0,1111122 
SCCF RECON,ioos:station:SCCF:16:1,2011-11-10T00:00:00Z,26.4345,-81.9647,2.68,32.57,1111122 
SCCF RECON,ioos:station:SCCF:16:1,2011-11-10T01:00:00Z,26.4345,-81.9647,2.812,33.09,1111122 
SCCF RECON,ioos:station:SCCF:16:1,2011-11-10T02:00:00Z,26.4345,-81.9647,2.949,32.77,1111122 
SCCF RECON,ioos:station:SCCF:16:1,2011-11-10T03:00:00Z,26.4345,-81.9647,3.02,33.62,1111122 
SCCF RECON,ioos:station:SCCF:16:1,2011-11-10T04:00:00Z,26.4345,-81.9647,3.054,33.86,1111122 
SCCF RECON,ioos:station:SCCF:16:1,2011-11-10T05:00:00Z,26.4345,-81.9647,3.006,34.06,1111122 
SCCF RECON,ioos:station:SCCF:16:1,2011-11-10T06:00:00Z,26.4345,-81.9647,2.858,34.24,1111122 
SCCF RECON,ioos:station:SCCF:16:1,2011-11-10T07:00:00Z,26.4345,-81.9647,2.67,34.07,1111122 
SCCF RECON,ioos:station:SCCF:16:1,2011-11-10T08:00:00Z,26.4345,-81.9647,2.446,33.03,1111122 
SCCF RECON,ioos:station:SCCF:16:1,2011-11-10T09:00:00Z,26.4345,-81.9647,2.278,32.21,1111122 
SCCF RECON,ioos:station:SCCF:16:1,2011-11-10T10:00:00Z,26.4345,-81.9647,2.125,31.9,1111122 
SCCF RECON,ioos:station:SCCF:16:1,2011-11-10T11:00:00Z,26.4345,-81.9647,2.091,29.71,1111122 
SCCF RECON,ioos:station:SCCF:16:1,2011-11-10T12:00:00Z,26.4345,-81.9647,2.176,29.0,1111122 
SCCF RECON,ioos:station:SCCF:16:1,2011-11-10T13:00:00Z,26.4345,-81.9647,2.384,28.96,1111122 
SCCF RECON,ioos:station:SCCF:16:1,2011-11-10T14:00:00Z,26.4345,-81.9647,2.594,31.71,1111122 
SCCF RECON,ioos:station:SCCF:16:1,2011-11-10T15:00:00Z,26.4345,-81.9647,2.732,34.36,1111122 
SCCF RECON,ioos:station:SCCF:16:1,2011-11-10T16:00:00Z,26.4345,-81.9647,2.848,34.38,1111122 
SCCF RECON,ioos:station:SCCF:16:1,2011-11-10T17:00:00Z,26.4345,-81.9647,2.881,34.4,1111122 
SCCF RECON,ioos:station:SCCF:16:1,2011-11-10T18:00:00Z,26.4345,-81.9647,2.88,34.41,1111122 
SCCF RECON,ioos:station:SCCF:16:1,2011-11-10T19:00:00Z,26.4345,-81.9647,2.83,34.45,1111122 
SCCF RECON,ioos:station:SCCF:16:1,2011-11-10T20:00:00Z,26.4345,-81.9647,2.729,34.5,1111122 
SCCF RECON,ioos:station:SCCF:16:1,2011-11-10T21:00:00Z,26.4345,-81.9647,2.645,34.38,1111122 
SCCF RECON,ioos:station:SCCF:16:1,2011-11-10T22:00:00Z,26.4345,-81.9647,2.61,34.33,1111122 
SCCF RECON,ioos:station:SCCF:16:1,2011-11-10T23:00:00Z,26.4345,-81.9647,2.588,34.17,1111122 
SCCF RECON,ioos:station:SCCF:16:1,2011-11-11T00:00:00Z,26.4345,-81.9647,2.636,32.45,1111122 
SCCF RECON,ioos:station:SCCF:16:1,2011-11-11T01:00:00Z,26.4345,-81.9647,2.746,32.09,1111122 
SCCF RECON,ioos:station:SCCF:16:1,2011-11-11T02:00:00Z,26.4345,-81.9647,2.855,32.51,1111122 
SCCF RECON,ioos:station:SCCF:16:1,2011-11-11T03:00:00Z,26.4345,-81.9647,2.979,33.6,1111122 
SCCF RECON,ioos:station:SCCF:16:1,2011-11-11T04:00:00Z,26.4345,-81.9647,2.978,34.03,1111122 
SCCF RECON,ioos:station:SCCF:16:1,2011-11-11T05:00:00Z,26.4345,-81.9647,3.021,34.09,1111122 
SCCF RECON,ioos:station:SCCF:16:1,2011-11-11T06:00:00Z,26.4345,-81.9647,2.9,34.22,1111122 
SCCF RECON,ioos:station:SCCF:16:1,2011-11-11T07:00:00Z,26.4345,-81.9647,2.645,34.14,1111122 
SCCF RECON,ioos:station:SCCF:16:1,2011-11-11T08:00:00Z,26.4345,-81.9647,2.491,33.1,1111122 
SCCF RECON,ioos:station:SCCF:16:1,2011-11-11T09:00:00Z,26.4345,-81.9647,2.254,32.4,1111122 
SCCF RECON,ioos:station:SCCF:16:1,2011-11-11T10:00:00Z,26.4345,-81.9647,2.011,31.05,1111122 
SCCF RECON,ioos:station:SCCF:16:1,2011-11-11T11:00:00Z,26.4345,-81.9647,1.82,28.17,1111122 
SCCF RECON,ioos:station:SCCF:16:1,2011-11-11T12:00:00Z,26.4345,-81.9647,1.819,26.97,1111122 
SCCF RECON,ioos:station:SCCF:16:1,2011-11-11T13:00:00Z,26.4345,-81.9647,1.991,27.14,1111122 
SCCF RECON,ioos:station:SCCF:16:1,2011-11-11T14:00:00Z,26.4345,-81.9647,2.206,25.41,1111122 
SCCF RECON,ioos:station:SCCF:16:1,2011-11-11T15:00:00Z,26.4345,-81.9647,2.366,25.81,1111122 
SCCF RECON,ioos:station:SCCF:16:1,2011-11-11T16:00:00Z,26.4345,-81.9647,2.489,27.26,1111122 